Simultaneous Nadir Overpasses (SNOs) Predictions

Prediction of SNOs between GOES-15 and FY3D Satellite Orbit:

Table of predicted SNOs for the next 14.0 days since TLE Epoch: 11/23/2024
Index Date Time (GOES-15) GOES-15 Lat,Lon FY3D Lat,Lon Distance(km) Time Diff (sec)
1 11/23/2024 22:21:46 -0.02, 61.60 -0.88, 65.40 434.26 80
2 11/25/2024 10:43:45 0.04, 61.67 -0.32, 60.13 175.74 80
3 11/26/2024 10:27:44 0.03, 61.65 0.74, 64.66 343.79 80
4 11/27/2024 22:49:36 -0.05, 61.53 0.41, 59.41 241.69 80
5 11/28/2024 22:28:13 -0.03, 61.52 -0.60, 63.95 276.87 80
6 11/30/2024 10:50:12 0.05, 61.62 -0.64, 58.68 335.31 80
7 12/01/2024 10:34:10 0.04, 61.61 0.43, 63.21 183.51 80
8 12/02/2024 22:56:02 -0.06, 61.49 0.75, 57.97 401.82 80
9 12/03/2024 22:34:39 -0.04, 61.49 -0.28, 62.50 115.93 80
10 12/05/2024 10:56:37 0.06, 61.61 -0.94, 57.24 498.56 80
11 12/06/2024 10:40:35 0.05, 61.60 0.08, 61.78 19.53 80
